QPF
0.01 0.01 0.02 0.03 0.04 0.04 0.03 0.03 0.03 0.03 0.04 0.04 0.02 0.02 0.02 0.01 0.02 0.02 0.03 0.03 0.03 0.04 0.05 0.05 0.06 0.05 0.04 0.03 0.02 0.03 0.04 0.05 0.05 0.04 0.04 0.05 0.06 0.08 0.09 0.12 0.14 0.09 0.07
0.00 0.00 0.01 0.02 0.03 0.03 0.03 0.03 0.02 0.03 0.03 0.03 0.02 0.01 0.01 0.02 0.02 0.02 0.03 0.03 0.05 0.05 0.04 0.05 0.06 0.06 0.03 0.03 0.03 0.03 0.04 0.06 0.08 0.05 0.07 0.07 0.06 0.07 0.10 0.16 0.18 0.09 0.06
0.00 0.00 0.00 0.01 0.02 0.02 0.02 0.02 0.02 0.03 0.02 0.03 0.02 0.02 0.02 0.02 0.02 0.03 0.03 0.03 0.04 0.04 0.05 0.04 0.03 0.04 0.04 0.03 0.03 0.04 0.05 0.06 0.08 0.11 0.15 0.09 0.04 0.07 0.07 0.13 0.12 0.07 0.05
0.00 0.00 0.00 0.01 0.01 0.01 0.01 0.01 0.02 0.02 0.02 0.02 0.03 0.03 0.02 0.03 0.04 0.05 0.05 0.04 0.03 0.03 0.04 0.03 0.02 0.03 0.05 0.05 0.04 0.04 0.04 0.06 0.10 0.22 0.19 0.08 0.03 0.04 0.07 0.09 0.06 0.05 0.06
0.00 0.00 0.00 0.01 0.01 0.01 0.02 0.01 0.01 0.02 0.02 0.02 0.03 0.03 0.04 0.05 0.05 0.04 0.05 0.05 0.04 0.03 0.04 0.03 0.03 0.04 0.05 0.05 0.04 0.04 0.04 0.07 0.13 0.23 0.12 0.07 0.04 0.05 0.07 0.07 0.06 0.05 0.06
0.00 0.00 0.00 0.01 0.01 0.01 0.01 0.01 0.01 0.01 0.02 0.03 0.02 0.03 0.03 0.04 0.05 0.05 0.05 0.03 0.03 0.05 0.04 0.04 0.04 0.04 0.03 0.03 0.03 0.03 0.03 0.08 0.17 0.16 0.09 0.07 0.03 0.05 0.07 0.06 0.07 0.05 0.04
0.00 0.00 0.00 0.00 0.01 0.01 0.01 0.01 0.01 0.02 0.02 0.02 0.02 0.02 0.02 0.03 0.04 0.04 0.03 0.02 0.03 0.05 0.05 0.03 0.03 0.03 0.03 0.03 0.02 0.02 0.03 0.08 0.11 0.07 0.10 0.08 0.02 0.04 0.06 0.07 0.06 0.05 0.04
0.00 0.00 0.00 0.00 0.00 0.01 0.01 0.01 0.02 0.02 0.02 0.02 0.02 0.02 0.02 0.03 0.03 0.03 0.03 0.03 0.02 0.03 0.04 0.03 0.02 0.02 0.02 0.02 0.02 0.02 0.02 0.07 0.04 0.03 0.06 0.04 0.02 0.03 0.03 0.04 0.04 0.04 0.04
0.00 0.00 0.00 0.00 0.00 0.01 0.01 0.02 0.03 0.03 0.02 0.02 0.02 0.02 0.02 0.02 0.03 0.02 0.03 0.03 0.03 0.03 0.04 0.04 0.03 0.03 0.02 0.01 0.01 0.01 0.03 0.07 0.05 0.02 0.02 0.02 0.02 0.03 0.02 0.03 0.03 0.06 0.06
0.00 0.00 0.00 0.00 0.01 0.01 0.02 0.02 0.03 0.03 0.02 0.01 0.01 0.02 0.02 0.02 0.02 0.02 0.02 0.02 0.02 0.03 0.03 0.02 0.02 0.01 0.01 0.01 0.01 0.01 0.03 0.05 0.03 0.01 0.01 0.01 0.02 0.03 0.03 0.02 0.03 0.04 0.05
0.01 0.01 0.01 0.02 0.02 0.02 0.02 0.01 0.03 0.02 0.02 0.02 0.01 0.02 0.08 0.12 0.07 0.06 0.02 0.01 0.02 0.02 0.02 0.02 0.02 0.01 0.01 0.01 0.01 0.01 0.02 0.03 0.03 0.02 0.01 0.01 0.01 0.04 0.04 0.03 0.02 0.03 0.03
0.01 0.02 0.02 0.07 0.06 0.04 0.04 0.03 0.07 0.05 0.04 0.06 0.06 0.06 0.14 0.13 0.13 0.05 0.02 0.01 0.01 0.02 0.02 0.03 0.05 0.05 0.04 0.03 0.01 0.02 0.03 0.04 0.07 0.02 0.01 0.00 0.01 0.03 0.03 0.03 0.02 0.03 0.03
0.01 0.01 0.02 0.03 0.04 0.06 0.09 0.04 0.07 0.10 0.10 0.10 0.09 0.08 0.10 0.05 0.05 0.04 0.03 0.03 0.03 0.04 0.04 0.03 0.07 0.09 0.08 0.05 0.03 0.03 0.02 0.02 0.04 0.01 0.00 0.01 0.01 0.02 0.02 0.02 0.02 0.02 0.03
0.01 0.02 0.03 0.04 0.04 0.03 0.04 0.04 0.04 0.05 0.07 0.09 0.08 0.06 0.05 0.06 0.06 0.06 0.07 0.06 0.05 0.05 0.06 0.04 0.05 0.05 0.04 0.03 0.02 0.02 0.01 0.01 0.01 0.01 0.01 0.00 0.01 0.01 0.02 0.01 0.01 0.01 0.02
0.01 0.01 0.02 0.04 0.03 0.03 0.04 0.05 0.03 0.03 0.03 0.06 0.08 0.07 0.04 0.05 0.05 0.07 0.06 0.05 0.03 0.01 0.02 0.02 0.03 0.03 0.03 0.02 0.01 0.00 0.00 0.01 0.01 0.01 0.02 0.01 0.00 0.01 0.01 0.01 0.01 0.01 0.01
0.00 0.01 0.02 0.03 0.02 0.02 0.04 0.06 0.05 0.04 0.05 0.04 0.05 0.08 0.04 0.06 0.07 0.06 0.05 0.05 0.04 0.01 0.02 0.02 0.02 0.02 0.03 0.03 0.02 0.01 0.01 0.00 0.01 0.01 0.03 0.02 0.00 0.00 0.00 0.01 0.01 0.00 0.00
0.00 0.01 0.01 0.01 0.01 0.03 0.05 0.05 0.04 0.03 0.02 0.02 0.04 0.05 0.04 0.05 0.07 0.07 0.07 0.05 0.04 0.02 0.03 0.03 0.03 0.02 0.03 0.05 0.05 0.03 0.02 0.01 0.01 0.01 0.02 0.03 0.02 0.01 0.00 0.01 0.01 0.00 0.01
0.00 0.01 0.02 0.01 0.02 0.04 0.05 0.05 0.05 0.05 0.03 0.04 0.04 0.04 0.05 0.07 0.06 0.07 0.06 0.05 0.04 0.03 0.05 0.05 0.04 0.04 0.05 0.05 0.05 0.05 0.03 0.02 0.02 0.01 0.02 0.02 0.04 0.03 0.02 0.01 0.01 0.01 0.01
0.01 0.02 0.03 0.04 0.05 0.04 0.05 0.07 0.07 0.08 0.07 0.06 0.05 0.06 0.07 0.04 0.04 0.05 0.05 0.06 0.04 0.04 0.04 0.04 0.06 0.08 0.08 0.06 0.04 0.05 0.03 0.03 0.02 0.01 0.02 0.01 0.02 0.02 0.03 0.01 0.00 0.00 0.00
0.01 0.02 0.04 0.06 0.08 0.06 0.07 0.09 0.09 0.08 0.08 0.06 0.05 0.06 0.05 0.03 0.02 0.04 0.04 0.05 0.05 0.05 0.05 0.05 0.09 0.08 0.08 0.06 0.05 0.07 0.05 0.04 0.02 0.01 0.01 0.01 0.01 0.01 0.03 0.04 0.03 0.01 0.01
0.00 0.01 0.05 0.07 0.06 0.07 0.07 0.09 0.09 0.08 0.08 0.06 0.04 0.04 0.04 0.03 0.03 0.05 0.06 0.08 0.05 0.05 0.05 0.06 0.09 0.09 0.07 0.05 0.08 0.09 0.06 0.05 0.03 0.03 0.02 0.01 0.00 0.00 0.02 0.04 0.04 0.05 0.04
0.00 0.02 0.04 0.04 0.05 0.07 0.08 0.09 0.10 0.11 0.12 0.10 0.07 0.06 0.04 0.04 0.04 0.04 0.04 0.05 0.05 0.07 0.07 0.08 0.10 0.09 0.06 0.06 0.07 0.13 0.15 0.13 0.07 0.02 0.02 0.01 0.01 0.02 0.01 0.01 0.03 0.05 0.04
0.01 0.02 0.03 0.05 0.04 0.05 0.07 0.08 0.09 0.12 0.15 0.15 0.12 0.11 0.08 0.06 0.05 0.06 0.06 0.05 0.08 0.07 0.09 0.09 0.09 0.10 0.09 0.07 0.05 0.10 0.16 0.20 0.14 0.05 0.02 0.02 0.03 0.05 0.03 0.01 0.02 0.03 0.03
0.01 0.02 0.03 0.04 0.04 0.04 0.06 0.08 0.09 0.09 0.12 0.15 0.14 0.13 0.11 0.09 0.08 0.08 0.07 0.07 0.08 0.07 0.11 0.08 0.08 0.11 0.10 0.08 0.08 0.08 0.08 0.13 0.14 0.13 0.12 0.08 0.05 0.04 0.02 0.02 0.01 0.02 0.03
0.01 0.02 0.04 0.05 0.05 0.04 0.05 0.08 0.11 0.10 0.13 0.15 0.15 0.15 0.13 0.11 0.08 0.08 0.08 0.08 0.09 0.09 0.10 0.09 0.11 0.09 0.10 0.10 0.10 0.10 0.09 0.08 0.07 0.10 0.13 0.11 0.09 0.07 0.04 0.03 0.03 0.03 0.03
0.00 0.02 0.05 0.05 0.05 0.05 0.04 0.07 0.11 0.10 0.14 0.17 0.17 0.14 0.12 0.10 0.09 0.08 0.06 0.07 0.09 0.11 0.11 0.10 0.09 0.07 0.09 0.10 0.09 0.08 0.10 0.10 0.07 0.07 0.08 0.09 0.08 0.06 0.05 0.04 0.04 0.03 0.03
MSLP
1011.36 1011.51 1011.79 1012.19 1012.65 1013.08 1013.44 1013.67 1013.77 1013.77 1013.71 1013.66 1013.67 1013.75 1013.91 1014.13 1014.35 1014.54 1014.67 1014.74 1014.76 1014.77 1014.79 1014.85 1014.96 1015.12 1015.30 1015.49 1015.67 1015.81 1015.92 1016.00 1016.08 1016.16 1016.27 1016.40 1016.56 1016.73 1016.92 1017.10 1017.28 1017.46 1017.65
1011.36 1011.62 1012.02 1012.51 1013.03 1013.49 1013.83 1014.00 1014.02 1013.94 1013.83 1013.75 1013.76 1013.88 1014.09 1014.37 1014.64 1014.86 1015.01 1015.08 1015.09 1015.07 1015.07 1015.13 1015.23 1015.40 1015.59 1015.78 1015.95 1016.08 1016.18 1016.26 1016.34 1016.44 1016.58 1016.75 1016.96 1017.18 1017.39 1017.60 1017.79 1017.96 1018.13
1011.28 1011.65 1012.15 1012.74 1013.31 1013.80 1014.12 1014.26 1014.24 1014.12 1013.97 1013.88 1013.90 1014.04 1014.28 1014.58 1014.86 1015.09 1015.23 1015.29 1015.29 1015.27 1015.28 1015.35 1015.48 1015.65 1015.86 1016.05 1016.21 1016.32 1016.41 1016.48 1016.57 1016.70 1016.88 1017.10 1017.35 1017.61 1017.87 1018.09 1018.29 1018.46 1018.62
1011.14 1011.60 1012.20 1012.86 1013.49 1014.00 1014.33 1014.46 1014.43 1014.30 1014.15 1014.06 1014.09 1014.24 1014.48 1014.77 1015.04 1015.25 1015.37 1015.42 1015.42 1015.42 1015.46 1015.57 1015.73 1015.94 1016.15 1016.34 1016.48 1016.58 1016.64 1016.71 1016.81 1016.96 1017.17 1017.44 1017.74 1018.04 1018.32 1018.56 1018.77 1018.94 1019.09
1010.95 1011.50 1012.18 1012.90 1013.58 1014.12 1014.47 1014.61 1014.59 1014.47 1014.34 1014.28 1014.32 1014.48 1014.71 1014.97 1015.22 1015.39 1015.49 1015.54 1015.56 1015.59 1015.69 1015.84 1016.05 1016.28 1016.50 1016.68 1016.79 1016.86 1016.90 1016.95 1017.05 1017.22 1017.47 1017.78 1018.11 1018.44 1018.74 1018.99 1019.19 1019.37 1019.52
1010.79 1011.41 1012.14 1012.92 1013.63 1014.19 1014.56 1014.73 1014.73 1014.65 1014.56 1014.53 1014.59 1014.75 1014.97 1015.21 1015.42 1015.57 1015.65 1015.71 1015.76 1015.85 1016.00 1016.21 1016.46 1016.71 1016.92 1017.07 1017.14 1017.16 1017.17 1017.20 1017.30 1017.50 1017.78 1018.12 1018.48 1018.82 1019.12 1019.36 1019.56 1019.72 1019.87
1010.70 1011.36 1012.14 1012.94 1013.67 1014.25 1014.63 1014.82 1014.86 1014.82 1014.78 1014.79 1014.88 1015.05 1015.27 1015.48 1015.67 1015.80 1015.89 1015.96 1016.06 1016.21 1016.41 1016.67 1016.95 1017.20 1017.38 1017.48 1017.50 1017.46 1017.43 1017.45 1017.56 1017.77 1018.08 1018.45 1018.83 1019.18 1019.46 1019.68 1019.84 1019.98 1020.13
1010.70 1011.39 1012.19 1013.00 1013.72 1014.29 1014.68 1014.88 1014.96 1014.96 1014.97 1015.03 1015.16 1015.35 1015.57 1015.78 1015.96 1016.09 1016.19 1016.30 1016.44 1016.64 1016.89 1017.18 1017.46 1017.69 1017.83 1017.86 1017.81 1017.73 1017.66 1017.66 1017.78 1018.03 1018.37 1018.76 1019.15 1019.49 1019.76 1019.94 1020.06 1020.17 1020.30
1010.81 1011.50 1012.29 1013.08 1013.78 1014.33 1014.70 1014.91 1015.01 1015.05 1015.11 1015.22 1015.39 1015.61 1015.84 1016.06 1016.25 1016.40 1016.53 1016.67 1016.85 1017.08 1017.36 1017.65 1017.92 1018.10 1018.18 1018.15 1018.04 1017.90 1017.81 1017.82 1017.96 1018.24 1018.62 1019.05 1019.45 1019.79 1020.03 1020.17 1020.25 1020.31 1020.41
1010.97 1011.66 1012.42 1013.17 1013.83 1014.34 1014.69 1014.89 1015.01 1015.09 1015.19 1015.34 1015.55 1015.80 1016.06 1016.30 1016.50 1016.67 1016.82 1016.99 1017.20 1017.45 1017.73 1018.01 1018.24 1018.37 1018.38 1018.29 1018.14 1017.98 1017.88 1017.91 1018.09 1018.42 1018.84 1019.30 1019.73 1020.07 1020.29 1020.39 1020.43 1020.45 1020.51
1011.16 1011.82 1012.55 1013.25 1013.85 1014.32 1014.64 1014.84 1014.96 1015.07 1015.20 1015.40 1015.64 1015.92 1016.20 1016.46 1016.68 1016.86 1017.03 1017.22 1017.43 1017.68 1017.94 1018.19 1018.37 1018.46 1018.42 1018.30 1018.12 1017.96 1017.89 1017.95 1018.18 1018.56 1019.04 1019.54 1019.99 1020.33 1020.55 1020.63 1020.64 1020.62 1020.65
1011.33 1011.97 1012.65 1013.30 1013.85 1014.27 1014.56 1014.75 1014.89 1015.02 1015.19 1015.41 1015.68 1015.98 1016.28 1016.55 1016.77 1016.96 1017.13 1017.31 1017.52 1017.75 1017.98 1018.19 1018.33 1018.38 1018.33 1018.19 1018.03 1017.90 1017.87 1017.99 1018.27 1018.69 1019.21 1019.75 1020.22 1020.58 1020.80 1020.89 1020.88 1020.85 1020.85
1011.46 1012.08 1012.71 1013.31 1013.82 1014.21 1014.49 1014.68 1014.84 1014.99 1015.19 1015.43 1015.72 1016.02 1016.32 1016.58 1016.80 1016.98 1017.13 1017.30 1017.48 1017.67 1017.88 1018.05 1018.17 1018.21 1018.16 1018.05 1017.93 1017.85 1017.87 1018.04 1018.37 1018.83 1019.38 1019.93 1020.42 1020.80 1021.04 1021.14 1021.15 1021.12 1021.11
1011.57 1012.15 1012.75 1013.31 1013.79 1014.17 1014.45 1014.67 1014.84 1015.03 1015.25 1015.50 1015.79 1016.09 1016.37 1016.61 1016.80 1016.95 1017.09 1017.22 1017.37 1017.53 1017.70 1017.86 1017.97 1018.01 1018.00 1017.94 1017.88 1017.87 1017.95 1018.16 1018.51 1018.99 1019.52 1020.07 1020.56 1020.95 1021.21 1021.35 1021.39 1021.39 1021.40
1011.65 1012.22 1012.79 1013.32 1013.79 1014.17 1014.48 1014.73 1014.94 1015.16 1015.40 1015.66 1015.93 1016.21 1016.46 1016.66 1016.82 1016.94 1017.04 1017.14 1017.26 1017.39 1017.54 1017.69 1017.80 1017.89 1017.92 1017.93 1017.94 1018.00 1018.13 1018.36 1018.70 1019.15 1019.64 1020.15 1020.61 1021.00 1021.28 1021.46 1021.57 1021.62 1021.67
1011.75 1012.29 1012.83 1013.35 1013.82 1014.23 1014.57 1014.86 1015.13 1015.38 1015.64 1015.90 1016.15 1016.39 1016.60 1016.77 1016.89 1016.98 1017.05 1017.13 1017.22 1017.33 1017.47 1017.61 1017.75 1017.87 1017.97 1018.05 1018.13 1018.24 1018.40 1018.62 1018.93 1019.30 1019.71 1020.14 1020.55 1020.91 1021.20 1021.43 1021.60 1021.73 1021.84
1011.87 1012.38 1012.89 1013.40 1013.88 1014.31 1014.71 1015.05 1015.37 1015.66 1015.93 1016.18 1016.41 1016.62 1016.79 1016.92 1017.01 1017.08 1017.13 1017.19 1017.27 1017.38 1017.51 1017.66 1017.83 1017.99 1018.14 1018.28 1018.41 1018.56 1018.72 1018.92 1019.15 1019.42 1019.73 1020.04 1020.37 1020.68 1020.97 1021.23 1021.47 1021.68 1021.87
1012.02 1012.48 1012.96 1013.45 1013.93 1014.40 1014.84 1015.24 1015.60 1015.92 1016.20 1016.44 1016.65 1016.82 1016.96 1017.07 1017.15 1017.21 1017.27 1017.33 1017.41 1017.52 1017.66 1017.82 1018.00 1018.19 1018.38 1018.56 1018.73 1018.89 1019.05 1019.19 1019.34 1019.50 1019.67 1019.87 1020.08 1020.32 1020.59 1020.87 1021.16 1021.45 1021.72
1012.17 1012.58 1013.02 1013.48 1013.96 1014.44 1014.91 1015.35 1015.75 1016.09 1016.38 1016.62 1016.80 1016.95 1017.07 1017.17 1017.26 1017.34 1017.42 1017.51 1017.61 1017.72 1017.86 1018.02 1018.21 1018.41 1018.62 1018.82 1019.02 1019.18 1019.32 1019.42 1019.48 1019.53 1019.58 1019.64 1019.74 1019.90 1020.12 1020.39 1020.71 1021.05 1021.38
1012.30 1012.66 1013.05 1013.47 1013.93 1014.41 1014.89 1015.36 1015.78 1016.13 1016.42 1016.65 1016.82 1016.96 1017.08 1017.19 1017.30 1017.42 1017.54 1017.67 1017.80 1017.93 1018.07 1018.22 1018.39 1018.58 1018.79 1019.01 1019.21 1019.38 1019.50 1019.56 1019.57 1019.53 1019.47 1019.42 1019.41 1019.47 1019.62 1019.85 1020.17 1020.53 1020.91
1012.40 1012.71 1013.04 1013.41 1013.83 1014.29 1014.77 1015.24 1015.66 1016.02 1016.31 1016.52 1016.69 1016.83 1016.96 1017.10 1017.26 1017.43 1017.61 1017.78 1017.94 1018.09 1018.22 1018.36 1018.50 1018.67 1018.86 1019.07 1019.27 1019.44 1019.57 1019.62 1019.60 1019.51 1019.38 1019.24 1019.13 1019.10 1019.17 1019.34 1019.62 1019.96 1020.35
1012.45 1012.72 1013.00 1013.32 1013.69 1014.12 1014.57 1015.02 1015.43 1015.78 1016.06 1016.27 1016.43 1016.58 1016.74 1016.92 1017.13 1017.37 1017.61 1017.83 1018.03 1018.18 1018.31 1018.41 1018.52 1018.65 1018.81 1019.00 1019.20 1019.39 1019.54 1019.62 1019.61 1019.51 1019.35 1019.16 1018.98 1018.86 1018.84 1018.93 1019.14 1019.43 1019.79
1012.47 1012.72 1012.95 1013.22 1013.54 1013.92 1014.34 1014.76 1015.15 1015.48 1015.74 1015.94 1016.11 1016.28 1016.46 1016.69 1016.96 1017.25 1017.55 1017.82 1018.04 1018.20 1018.31 1018.38 1018.44 1018.53 1018.66 1018.83 1019.04 1019.26 1019.45 1019.58 1019.61 1019.55 1019.39 1019.18 1018.96 1018.78 1018.67 1018.68 1018.79 1019.01 1019.31
1012.47 1012.71 1012.93 1013.15 1013.43 1013.76 1014.13 1014.51 1014.87 1015.18 1015.43 1015.63 1015.80 1015.98 1016.20 1016.46 1016.78 1017.12 1017.46 1017.76 1018.00 1018.16 1018.25 1018.29 1018.31 1018.35 1018.45 1018.61 1018.83 1019.08 1019.33 1019.52 1019.63 1019.62 1019.51 1019.32 1019.09 1018.86 1018.69 1018.60 1018.63 1018.77 1018.99
1012.46 1012.73 1012.93 1013.14 1013.38 1013.67 1014.00 1014.34 1014.67 1014.95 1015.19 1015.38 1015.56 1015.76 1015.99 1016.28 1016.62 1016.99 1017.35 1017.68 1017.93 1018.08 1018.15 1018.16 1018.15 1018.16 1018.23 1018.39 1018.62 1018.91 1019.21 1019.47 1019.66 1019.73 1019.68 1019.53 1019.31 1019.07 1018.85 1018.71 1018.66 1018.72 1018.88
1012.45 1012.76 1012.98 1013.19 1013.41 1013.67 1013.96 1014.27 1014.57 1014.83 1015.05 1015.24 1015.42 1015.61 1015.85 1016.14 1016.49 1016.87 1017.24 1017.57 1017.82 1017.97 1018.04 1018.04 1018.01 1018.00 1018.07 1018.22 1018.47 1018.78 1019.13 1019.46 1019.71 1019.86 1019.88 1019.78 1019.60 1019.36 1019.14 1018.96 1018.87 1018.88 1018.99
Thickness
5791 5786 5781 5780 5778 5777 5775 5774 5772 5771 5770 5769 5768 5767 5767 5766 5765 5765 5764 5763 5762 5761 5761 5760 5759 5758 5757 5757 5756 5755 5754 5753 5752 5751 5749 5748 5746 5745 5744 5742 5742 5739 5737
5793 5785 5781 5779 5777 5775 5774 5772 5771 5769 5768 5767 5766 5765 5765 5764 5763 5763 5762 5761 5760 5759 5759 5758 5757 5756 5756 5755 5754 5753 5752 5751 5750 5749 5748 5746 5744 5743 5742 5741 5740 5737 5736
5793 5785 5780 5778 5776 5774 5772 5771 5769 5768 5766 5765 5764 5763 5763 5762 5761 5760 5760 5759 5758 5757 5756 5756 5755 5754 5754 5753 5752 5752 5750 5750 5749 5748 5747 5745 5742 5741 5741 5739 5737 5736 5734
5795 5787 5780 5776 5774 5772 5771 5769 5768 5766 5765 5764 5762 5762 5761 5760 5759 5758 5758 5757 5756 5755 5754 5754 5753 5752 5752 5751 5751 5750 5749 5748 5748 5747 5746 5744 5742 5739 5738 5737 5735 5734 5732
5794 5784 5778 5775 5772 5771 5769 5767 5766 5765 5763 5762 5761 5760 5759 5758 5757 5756 5755 5755 5754 5753 5752 5752 5751 5750 5750 5750 5749 5749 5749 5748 5747 5746 5745 5743 5740 5737 5736 5735 5733 5732 5731
5792 5784 5776 5773 5771 5769 5767 5766 5764 5763 5762 5760 5759 5758 5757 5756 5756 5754 5754 5753 5752 5751 5750 5750 5749 5749 5748 5748 5748 5748 5748 5747 5747 5745 5743 5740 5737 5736 5734 5733 5732 5730 5729
5793 5783 5776 5772 5769 5767 5766 5764 5763 5761 5760 5759 5757 5756 5755 5754 5754 5753 5752 5751 5750 5750 5749 5749 5748 5747 5747 5747 5747 5747 5747 5748 5748 5745 5742 5738 5736 5734 5733 5731 5730 5729 5727
5795 5784 5775 5771 5768 5766 5764 5762 5761 5759 5758 5757 5756 5755 5754 5753 5752 5751 5750 5749 5749 5748 5747 5747 5747 5746 5746 5746 5746 5746 5747 5748 5748 5745 5740 5737 5734 5732 5731 5730 5729 5728 5726
5798 5786 5778 5772 5768 5765 5763 5761 5759 5758 5757 5756 5755 5754 5753 5752 5750 5749 5749 5748 5747 5746 5746 5745 5745 5745 5745 5745 5746 5746 5747 5747 5747 5744 5740 5735 5733 5731 5730 5729 5727 5726 5725
5799 5791 5783 5776 5770 5766 5763 5760 5758 5757 5756 5755 5754 5753 5752 5751 5749 5748 5747 5746 5746 5745 5745 5744 5744 5744 5744 5745 5745 5746 5746 5747 5747 5744 5739 5734 5732 5731 5729 5728 5727 5725 5724
5797 5793 5787 5780 5773 5770 5765 5760 5758 5756 5755 5754 5753 5752 5751 5751 5750 5748 5747 5746 5745 5744 5744 5744 5744 5743 5744 5744 5745 5745 5746 5747 5746 5742 5737 5733 5731 5730 5728 5727 5726 5725 5723
5792 5791 5788 5782 5776 5772 5769 5762 5760 5759 5756 5755 5754 5753 5752 5752 5751 5750 5747 5745 5745 5744 5744 5744 5743 5743 5743 5744 5745 5746 5746 5747 5745 5740 5736 5733 5731 5729 5728 5727 5725 5724 5722
5794 5792 5788 5783 5776 5773 5769 5764 5763 5761 5758 5756 5755 5754 5754 5754 5752 5749 5748 5746 5745 5745 5745 5745 5744 5744 5745 5746 5747 5747 5748 5747 5745 5740 5735 5732 5731 5729 5728 5726 5725 5723 5722
5794 5791 5789 5783 5777 5773 5770 5767 5765 5763 5760 5758 5755 5755 5755 5754 5753 5752 5750 5750 5749 5749 5748 5748 5747 5747 5747 5747 5748 5748 5748 5746 5743 5738 5734 5732 5730 5729 5727 5726 5725 5723 5721
5794 5791 5788 5782 5777 5773 5770 5768 5766 5764 5761 5759 5755 5754 5754 5754 5753 5752 5751 5751 5752 5751 5750 5749 5749 5748 5748 5748 5748 5748 5747 5745 5743 5739 5734 5732 5730 5729 5727 5726 5724 5723 5721
5795 5791 5787 5782 5777 5772 5769 5766 5765 5764 5762 5760 5757 5755 5754 5754 5753 5752 5751 5751 5751 5752 5751 5750 5749 5749 5748 5747 5747 5747 5746 5745 5743 5740 5735 5732 5730 5729 5728 5726 5725 5723 5721
5797 5793 5787 5782 5777 5772 5768 5766 5765 5764 5763 5761 5758 5756 5754 5754 5753 5752 5752 5751 5751 5751 5750 5750 5749 5749 5748 5747 5747 5747 5746 5745 5743 5741 5737 5734 5732 5730 5728 5727 5725 5724 5722
5800 5793 5788 5785 5778 5772 5769 5766 5765 5764 5763 5761 5759 5756 5754 5753 5752 5751 5751 5751 5751 5751 5750 5749 5749 5748 5746 5746 5745 5746 5746 5745 5744 5742 5740 5738 5735 5733 5730 5728 5727 5725 5723
5802 5794 5788 5785 5779 5774 5769 5766 5764 5762 5761 5760 5758 5756 5754 5753 5752 5751 5751 5751 5751 5751 5750 5750 5749 5747 5745 5744 5745 5745 5745 5745 5745 5744 5742 5741 5739 5737 5734 5730 5728 5727 5725
5803 5796 5790 5785 5781 5776 5771 5767 5764 5762 5760 5758 5757 5755 5754 5753 5752 5752 5752 5751 5751 5750 5750 5749 5747 5747 5746 5745 5746 5746 5744 5745 5746 5746 5745 5744 5742 5740 5737 5734 5731 5728 5727
5802 5796 5790 5785 5781 5776 5771 5766 5762 5760 5760 5759 5758 5756 5754 5753 5753 5752 5752 5751 5750 5750 5750 5749 5747 5746 5745 5746 5743 5740 5743 5746 5747 5747 5746 5746 5745 5743 5741 5737 5734 5732 5730
5802 5796 5791 5787 5783 5778 5774 5770 5766 5763 5761 5761 5760 5758 5755 5754 5753 5753 5751 5751 5751 5749 5749 5748 5747 5744 5745 5747 5741 5735 5732 5735 5743 5749 5747 5746 5746 5744 5742 5740 5738 5736 5733
5803 5798 5794 5789 5784 5780 5776 5772 5768 5764 5761 5759 5758 5757 5756 5755 5753 5753 5752 5751 5751 5750 5748 5747 5747 5744 5742 5745 5746 5739 5729 5726 5734 5743 5746 5747 5746 5745 5744 5743 5741 5738 5736
5806 5801 5796 5790 5786 5781 5777 5771 5766 5761 5757 5757 5757 5757 5756 5755 5754 5753 5753 5752 5752 5751 5749 5748 5749 5747 5744 5742 5745 5746 5743 5739 5731 5730 5738 5743 5745 5745 5745 5744 5743 5741 5738
5810 5803 5797 5791 5785 5781 5777 5773 5767 5763 5761 5760 5758 5756 5754 5754 5754 5753 5753 5752 5751 5750 5750 5749 5749 5747 5746 5743 5742 5742 5742 5741 5739 5731 5728 5734 5740 5743 5744 5744 5743 5742 5739
5810 5804 5798 5790 5785 5781 5777 5773 5769 5765 5762 5759 5756 5754 5753 5753 5753 5753 5753 5752 5751 5750 5749 5749 5748 5747 5745 5745 5744 5743 5740 5737 5735 5734 5730 5731 5732 5738 5743 5744 5743 5742 5740